Regional Weather Roundup
Issued by NWS

Home | Current Version | Previous Version | Text Only | Print | Product List | Glossary Off
Versions: 1 2 3 4 5 6 7 8 9 10 11 12 13 14 15 16 17 18 19 20 21 22 23 24 25 26 27

000
ASUS45 KBOU 231507
RWRCO

WEATHER ROUNDUP FOR COLORADO
NATIONAL WEATHER SERVICE DENVER/BOULDER CO
900 AM MDT THU OCT 23 2014

NOTE: "FAIR" INDICATES FEW OR NO CLOUDS BELOW 12000 FEET WITH NO
SIGNIFICANT WEATHER AND/OR OBSTRUCTIONS TO VISIBILITY.

COZ001>005-013-030-031-231600-
...NORTHWEST COLORADO...

CITY           SKY/WX    TMP DP  RH WIND       PRES   REMARKS
CRAIG          SUNNY     36  32  85 CALM      30.30R
HAYDEN         SUNNY     39  30  70 SE9       30.30S
MEEKER         SUNNY     41  34  76 CALM      30.32R
MOUNT WERNER   NOT AVBL
STEAMBOAT SPGS SUNNY     33  31  90 CALM      30.34R
WALDEN         PTSUNNY   39  30  70 S9        30.32R
$$

COZ006>008-011-231600-
...WEST CENTRAL VALLEYS...

CITY           SKY/WX    TMP DP  RH WIND       PRES   REMARKS
GRAND JUNCTION SUNNY     48  39  71 SE6       30.27R
MONTROSE       SUNNY     45  35  68 S5        30.33R
EAGLE          FOG       34  32  93 CALM      30.40R VSB 0
RIFLE          SUNNY     41  36  82 CALM      30.32R
DELTA          SUNNY     45  36  69 CALM      30.31R
NUCLA          SUNNY     45  34  65 CALM      30.35R
$$

COZ017>023-064>068-231600-
...SOUTHWEST COLORADO...

CITY           SKY/WX    TMP DP  RH WIND       PRES   REMARKS
DURANGO        SUNNY     42  36  79 E5        30.34R
CORTEZ         SUNNY     42  34  73 CALM      30.31R
PAGOSA SPRINGS SUNNY     43  37  79 CALM      30.38R
TELLURIDE      SUNNY     41  32  70 E3        30.45R
WOLF CREEK PAS SUNNY     36  21  55 MISG        N/A
$$

COZ009-010-012-014-032>034-037-058>063-231600-
...CENTRAL COLORADO...

CITY           SKY/WX    TMP DP  RH WIND       PRES   REMARKS
ASPEN          SUNNY     40  31  70 CALM      30.37R
BUENA VISTA    SUNNY     38  31  76 CALM      30.37R
COPPER MTN     MOSUNNY   34  25  69 W13G23    30.50R WCI  25
BERTHOUD PASS  FAIR      27  23  86 NW30G44   30.47R WCI  10
COTTONWOOD PAS SUNNY     45  25  45 W3        30.42R
GUNNISON       SUNNY     30  27  86 CALM      30.44R
KREMMLING      FOG      N/A N/A N/A CALM        N/A  VSB<1/4
LEADVILLE      CLOUDY    37  25  61 CALM      30.42R
MONARCH PASS   SUNNY     30  27  86 W30       30.59R WCI  15
SALIDA         SUNNY     42  31  66 NW6       30.43R
SUNLIGHT       SUNNY     37  32  81 CALM      30.49R
WILKERSON PASS NOT AVBL
$$

COZ069>075-231600-
...SAN LUIS VALLEY/SANGRE DE CRISTO MOUNTAINS...

CITY           SKY/WX    TMP DP  RH WIND       PRES   REMARKS
ALAMOSA        MOSUNNY   38  30  73 SW6       30.37R
LA VETA PASS   SUNNY     39  30  70 S6        30.43R
SAGUACHE       SUNNY     43  32  65 NW13      30.37R
$$

COZ035-036-038>040-231600-
...NORTHERN COLORADO FRONT RANGE...

CITY           SKY/WX    TMP DP  RH WIND       PRES   REMARKS
DENVER INTL AP MOSUNNY   55  35  47 SW8       30.18R
DMNS CITY PARK   N/A     53  34  48 S6G13     30.19S
AURORA         MOSUNNY   53  34  47 S9        30.21R
FRONT RANGE AP NOT AVBL
ERIE MUNI ARPT MOSUNNY   47  40  75 CALM      30.17F
BOULDER MUN AP MOSUNNY   52  37  58 CALM      30.16F
CENTENNIAL     MOSUNNY   55  34  45 S5        30.21R
BROOMFIELD     MOSUNNY   52  36  54 SW3       30.19R
FORT COLLINS   SUNNY     46  39  76 CALM      30.18S
LONGMONT       SUNNY     51  39  63 CALM      30.18F
$$

COZ041-046-047-076>085-087-088-231600-
...PIKES PEAK/PALMER DIVIDE AND SOUTHERN FOOTHILLS...

CITY           SKY/WX    TMP DP  RH WIND       PRES   REMARKS
COLO. SPRINGS  MOSUNNY   57  36  45 N3        30.24R
A. F. ACADEMY  SUNNY     47  34  61 CALM      30.26R
ELLICOTT       NOT AVBL
FALCON         SUNNY     56  31  39 NW5       30.28R
FORT CARSON    SUNNY     51  36  57 N9        30.22R
LIMON          SUNNY     52  44  74 N3        30.20R
MONUMENT HILL  SUNNY     50  32  50 SW6       30.26R
TRINIDAD       SUNNY     54  36  50 W13       30.23R
$$

COZ042>045-048>051-090-091-231600-
...NORTHEAST COLORADO...

CITY           SKY/WX    TMP DP  RH WIND       PRES   REMARKS
GREELEY ARPT   NOT AVBL
AKRON          MOSUNNY   49  40  71 W13       30.16R
BURLINGTON     MOSUNNY   54  46  74 W5        30.17R
WRAY           SUNNY     52  41  66 SW6       30.14S
STERLING       MOSUNNY   45  41  87 S7        30.14R
HOLYOKE        SUNNY     54  41  62 W7        30.13S
FORT MORGAN    MOSUNNY   45  37  71 W8        30.17R
$$

COZ086-089-092>099-231600-
...SOUTHEAST COLORADO...

CITY           SKY/WX    TMP DP  RH WIND       PRES   REMARKS
PUEBLO         SUNNY     52  39  61 W7        30.19R
LA JUNTA       SUNNY     52  45  77 W5        30.18R
LAMAR          MOSUNNY   54  47  77 W7        30.16R
SPRINGFIELD      N/A     59  49  69 NW13      30.16R
$$



USA.gov is the U.S. government's official web portal to all federal, state and local government web resources and services.